Bloomington, IL

3:45 PM CDT on April 26, 2017 (GMT -0500)
Central Ill Regional

Weather History for KBMI - January, 2014

Change the Weather History Date:

Friday, January 31, 2014

  Actual Average Record
Temperature  
Mean Temperature 18 °F -  
Max Temperature 20 °F 21 °F 57 °F (2012)
Min Temperature 17 °F 6 °F -11 °F (1963)
Degree Days  
Heating Degree Days 47    
Moisture  
Dew Point 14 °F    
Average Humidity 86    
Maximum Humidity 93    
Minimum Humidity 73    
Precipitation  
Precipitation 0.00 in - - ()
Sea Level Pressure  
Sea Level Pressure 30.13 in    
Wind  
Wind Speed 9 mph (NNE)    
Max Wind Speed 18 mph    
Max Gust Speed -    
Visibility 4 miles    
Events Fog , Snow    
Averages and records for this station are not official NWS values.
T = Trace of Precipitation, MM = Missing Value Source: NWS Daily Summary

Daily Weather History Graph

Daily Weather History Graph

Search for Another Location

Airport or City:

Trip Planner

Search our weather history database for the weather conditions in past years. The results will help you decide how hot, cold, wet, or windy it might be!

Date:

Astronomy

Jan. 31, 2014 Rise Set
Actual Time 7:06 AM CST 5:12 PM CST
Civil Twilight 6:37 AM CST 5:41 PM CST
Nautical Twilight 6:04 AM CST 6:14 PM CST
Astronomical Twilight 5:32 AM CST 6:46 PM CST
Moon 7:15 AM CST (1/31) 6:37 PM CST (1/31)
Length of Visible Light 11h 04m
Length of Day
10h 06m
New Moon, 1% of the Moon is Illuminated
Jan 31
New Moon
Feb 6
First Quarter
Feb 14
Full
Feb 22
Last Quarter
Mar 1
New

Hourly Weather History & Observations

Time (CST) Temp. Windchill Dew Point Humidity Pressure Visibility Wind Dir Wind Speed Gust Speed Precip Events Conditions
12:56 AM 19.0 °F 6.8 °F 14.0 °F 81% 30.03 in 10.0 mi NNW 11.5 mph - N/A   Clear
1:56 AM 18.1 °F 2.4 °F 12.0 °F 77% 30.05 in 10.0 mi NNW 18.4 mph - N/A   Clear
2:56 AM 17.1 °F 5.8 °F 12.0 °F 81% 30.06 in 10.0 mi North 9.2 mph - N/A   Clear
3:56 AM 17.1 °F 6.6 °F 11.1 °F 77% 30.09 in 10.0 mi NNW 8.1 mph - N/A   Clear
4:56 AM 17.1 °F 5.8 °F 10.0 °F 74% 30.11 in 10.0 mi North 9.2 mph - N/A   Clear
5:56 AM 17.1 °F 10.0 °F 11.1 °F 77% 30.15 in 10.0 mi NW 4.6 mph - N/A   Clear
6:56 AM 17.1 °F 11.7 °F 10.0 °F 74% 30.17 in 10.0 mi NW 3.5 mph - N/A   Clear
7:29 AM 17.6 °F 10.7 °F 10.4 °F 73% 30.11 in 10.0 mi North 4.6 mph - N/A   Mostly Cloudy
7:56 AM 17.1 °F 10.0 °F 11.1 °F 77% 30.18 in 1.8 mi North 4.6 mph - 0.00 in Snow Light Snow
8:56 AM 17.1 °F 7.6 °F 13.1 °F 84% 30.19 in 0.5 mi NNW 6.9 mph - 0.00 in Fog , Snow Light Snow
9:56 AM 17.1 °F 10.0 °F 13.1 °F 84% 30.21 in 1.2 mi NNW 4.6 mph - 0.00 in Snow Light Snow
10:56 AM 18.1 °F 10.0 °F 14.0 °F 84% 30.22 in 1.0 mi North 5.8 mph - 0.00 in Snow Light Snow
11:03 AM 17.6 °F 9.3 °F 14.0 °F 86% 30.15 in 0.8 mi North 5.8 mph - 0.00 in Snow Light Snow
11:17 AM 17.6 °F 7.3 °F 14.0 °F 86% 30.15 in 1.0 mi North 8.1 mph - 0.00 in Snow Light Snow
11:56 AM 18.1 °F 5.6 °F 14.0 °F 84% 30.20 in 1.2 mi North 11.5 mph - 0.00 in Snow Light Snow
12:56 PM 18.1 °F 8.9 °F 14.0 °F 84% 30.19 in 1.5 mi North 6.9 mph - 0.00 in Snow Light Snow
1:56 PM 18.1 °F 7.9 °F 14.0 °F 84% 30.19 in 2.0 mi NE 8.1 mph - 0.00 in Snow Light Snow
2:56 PM 18.1 °F 7.9 °F 14.0 °F 84% 30.17 in 2.0 mi ENE 8.1 mph - 0.00 in Snow Light Snow
3:56 PM 18.1 °F 7.9 °F 15.1 °F 88% 30.19 in 1.5 mi NE 8.1 mph - 0.00 in Snow Light Snow
4:56 PM 18.1 °F 6.3 °F 15.1 °F 88% 30.17 in 1.5 mi ENE 10.4 mph - 0.00 in Snow Light Snow
5:34 PM 17.6 °F 6.4 °F 15.8 °F 93% 30.08 in 5.0 mi ENE 9.2 mph - 0.00 in Snow Light Snow
5:56 PM 18.1 °F 7.9 °F 15.1 °F 88% 30.17 in 3.0 mi ENE 8.1 mph - 0.00 in Snow Light Snow
6:17 PM 17.6 °F 7.3 °F 15.8 °F 93% 30.09 in 2.0 mi ENE 8.1 mph - 0.00 in Snow Light Snow
6:56 PM 18.1 °F 7.1 °F 16.2 °F 92% 30.17 in 3.0 mi ENE 9.2 mph - 0.00 in Snow Light Snow
7:56 PM 18.1 °F 6.3 °F 16.2 °F 92% 30.15 in 3.0 mi East 10.4 mph - 0.00 in Snow Light Snow
8:56 PM 19.0 °F 8.2 °F 16.2 °F 89% 30.16 in 2.0 mi ENE 9.2 mph - 0.00 in Snow Light Snow
9:56 PM 19.0 °F 7.5 °F 17.1 °F 92% 30.14 in 2.5 mi NE 10.4 mph - 0.00 in Snow Light Snow
10:04 PM 19.4 °F 7.9 °F 17.6 °F 93% 30.06 in 2.5 mi NE 10.4 mph - 0.00 in Snow Light Snow
10:11 PM 19.4 °F 7.9 °F 17.6 °F 93% 30.06 in 2.5 mi NE 10.4 mph - 0.00 in Snow Light Snow
10:18 PM 19.4 °F 7.9 °F 17.6 °F 93% 30.05 in 2.5 mi NE 10.4 mph - 0.00 in Snow Light Snow
10:49 PM 19.4 °F 7.9 °F 17.6 °F 93% 30.03 in 3.0 mi ENE 10.4 mph - 0.00 in Snow Light Snow
10:56 PM 19.0 °F 6.8 °F 17.1 °F 92% 30.11 in 3.0 mi ENE 11.5 mph - 0.00 in Snow Light Snow
11:09 PM 19.4 °F 7.2 °F 17.6 °F 93% 30.02 in 3.0 mi ENE 11.5 mph - 0.00 in Snow Light Snow
11:56 PM 20.1 °F 9.5 °F 18.1 °F 92% 30.11 in 4.0 mi NE 9.2 mph - 0.00 in   Mostly Cloudy